Time,TemperatureF,DewpointF,PressureIn,WindDirection,WindDirectionDegrees,WindSpeedMPH,WindSpeedGustMPH,Humidity,HourlyPrecipIn,Conditions,Clouds,dailyrainin,SolarRadiationWatts/m^2,SoftwareType,DateUTC
2013-05-22 00:01:00,33.0,23.0,-100.00,SSW,205,5.0,20.0,67,0.00,,,0.03,0.000000,,2013-05-22 07:01:00,
2013-05-22 00:11:00,33.0,23.0,-100.00,SSW,205,5.0,20.0,67,0.00,,,0.03,0.000000,,2013-05-22 07:11:00,
2013-05-22 00:21:00,33.0,23.0,-100.00,SSW,205,5.0,20.0,67,0.00,,,0.03,0.000000,,2013-05-22 07:21:00,
2013-05-22 00:31:00,33.0,24.0,-100.00,SSW,205,8.0,17.0,69,0.00,,,0.03,0.000000,,2013-05-22 07:31:00,
2013-05-22 00:52:00,33.0,24.0,-100.00,SSW,205,8.0,17.0,69,0.00,,,0.03,0.000000,,2013-05-22 07:52:00,
2013-05-22 01:02:00,33.0,24.0,-100.00,SSW,205,8.0,17.0,69,0.00,,,0.03,0.000000,,2013-05-22 08:02:00,
2013-05-22 01:11:00,33.0,24.0,-100.00,SSW,205,8.0,17.0,69,0.00,,,0.03,0.000000,,2013-05-22 08:11:00,
2013-05-22 01:22:00,33.0,24.0,-100.00,SSW,205,8.0,17.0,69,0.00,,,0.03,0.000000,,2013-05-22 08:22:00,
2013-05-22 01:31:00,33.0,23.0,-100.00,South,189,5.0,15.0,67,0.00,,,0.03,0.000000,,2013-05-22 08:31:00,
2013-05-22 01:52:00,33.0,23.0,-100.00,South,189,5.0,15.0,67,0.00,,,0.03,0.000000,,2013-05-22 08:52:00,
2013-05-22 02:01:00,33.0,23.0,-100.00,South,189,5.0,15.0,67,0.00,,,0.03,0.000000,,2013-05-22 09:01:00,
2013-05-22 02:11:00,33.0,23.0,-100.00,South,189,5.0,15.0,67,0.00,,,0.03,0.000000,,2013-05-22 09:11:00,
2013-05-22 02:21:00,33.0,23.0,-100.00,South,189,5.0,15.0,67,0.00,,,0.03,0.000000,,2013-05-22 09:21:00,
2013-05-22 02:31:00,33.0,23.0,-100.00,SW,215,6.0,14.0,66,0.00,,,0.03,0.000000,,2013-05-22 09:31:00,
2013-05-22 02:53:00,33.0,23.0,-100.00,SW,215,6.0,14.0,66,0.00,,,0.03,0.000000,,2013-05-22 09:53:00,
2013-05-22 03:02:00,33.0,23.0,-100.00,SW,215,6.0,14.0,66,0.00,,,0.03,0.000000,,2013-05-22 10:02:00,
2013-05-22 03:12:00,33.0,23.0,-100.00,SW,215,6.0,14.0,66,0.00,,,0.03,0.000000,,2013-05-22 10:12:00,
2013-05-22 03:22:00,33.0,23.0,-100.00,SW,215,6.0,14.0,66,0.00,,,0.03,0.000000,,2013-05-22 10:22:00,
2013-05-22 03:31:00,33.0,23.0,-100.00,SSW,200,7.0,18.0,65,0.00,,,0.03,0.000000,,2013-05-22 10:31:00,
2013-05-22 03:52:00,33.0,23.0,-100.00,SSW,200,7.0,18.0,65,0.00,,,0.03,0.000000,,2013-05-22 10:52:00,
2013-05-22 04:02:00,33.0,23.0,-100.00,SSW,200,7.0,18.0,65,0.00,,,0.03,0.000000,,2013-05-22 11:02:00,
2013-05-22 04:11:00,33.0,23.0,-100.00,SSW,200,7.0,18.0,65,0.00,,,0.03,0.000000,,2013-05-22 11:11:00,
2013-05-22 04:21:00,33.0,23.0,-100.00,SSW,200,7.0,18.0,65,0.00,,,0.03,0.000000,,2013-05-22 11:21:00,
2013-05-22 04:31:00,33.0,23.0,-100.00,South,187,8.0,14.0,66,0.00,,,0.02,0.000000,,2013-05-22 11:31:00,
2013-05-22 04:52:00,33.0,23.0,-100.00,South,187,8.0,14.0,66,0.00,,,0.02,0.000000,,2013-05-22 11:52:00,
2013-05-22 05:02:00,33.0,23.0,-100.00,South,187,8.0,14.0,66,0.00,,,0.02,0.000000,,2013-05-22 12:02:00,
2013-05-22 05:12:00,33.0,23.0,-100.00,South,187,8.0,14.0,66,0.00,,,0.02,0.000000,,2013-05-22 12:12:00,
2013-05-22 05:22:00,33.0,23.0,-100.00,South,187,8.0,14.0,66,0.00,,,0.02,0.000000,,2013-05-22 12:22:00,
2013-05-22 05:31:00,33.0,24.0,-100.00,South,189,8.0,15.0,69,0.00,,,0.02,0.000000,,2013-05-22 12:31:00,
2013-05-22 05:52:00,33.0,24.0,-100.00,South,189,8.0,15.0,69,0.00,,,0.02,0.000000,,2013-05-22 12:52:00,
2013-05-22 06:01:00,33.0,24.0,-100.00,South,189,8.0,15.0,69,0.00,,,0.02,0.000000,,2013-05-22 13:01:00,
2013-05-22 06:11:00,33.0,24.0,-100.00,South,189,8.0,15.0,69,0.00,,,0.02,0.000000,,2013-05-22 13:11:00,
2013-05-22 06:22:00,33.0,24.0,-100.00,South,189,8.0,15.0,69,0.00,,,0.02,0.000000,,2013-05-22 13:22:00,
2013-05-22 06:31:00,33.0,25.0,-100.00,South,188,9.0,16.0,71,0.00,,,0.02,23.000000,,2013-05-22 13:31:00,
2013-05-22 06:52:00,33.0,25.0,-100.00,South,188,9.0,16.0,71,0.00,,,0.02,23.000000,,2013-05-22 13:52:00,
2013-05-22 07:02:00,33.0,25.0,-100.00,South,188,9.0,16.0,71,0.00,,,0.02,23.000000,,2013-05-22 14:02:00,
2013-05-22 07:11:00,33.0,25.0,-100.00,South,188,9.0,16.0,71,0.00,,,0.02,23.000000,,2013-05-22 14:11:00,
2013-05-22 07:21:00,33.0,25.0,-100.00,South,188,9.0,16.0,71,0.00,,,0.02,23.000000,,2013-05-22 14:21:00,
2013-05-22 07:31:00,34.0,26.0,-100.00,South,175,8.0,16.0,72,0.00,,,0.02,61.000000,,2013-05-22 14:31:00,
2013-05-22 07:52:00,34.0,26.0,-100.00,South,175,8.0,16.0,72,0.00,,,0.02,61.000000,,2013-05-22 14:52:00,
2013-05-22 08:01:00,34.0,26.0,-100.00,South,175,8.0,16.0,72,0.00,,,0.02,61.000000,,2013-05-22 15:01:00,
2013-05-22 08:11:00,34.0,26.0,-100.00,South,175,8.0,16.0,72,0.00,,,0.02,61.000000,,2013-05-22 15:11:00,
2013-05-22 08:21:00,34.0,26.0,-100.00,South,175,8.0,16.0,72,0.00,,,0.02,61.000000,,2013-05-22 15:21:00,
2013-05-22 08:31:00,36.0,26.0,-100.00,South,189,7.0,17.0,67,0.00,,,0.02,222.000000,,2013-05-22 15:31:00,
2013-05-22 08:53:00,36.0,26.0,-100.00,South,189,7.0,17.0,67,0.00,,,0.02,222.000000,,2013-05-22 15:53:00,
2013-05-22 09:03:00,36.0,26.0,-100.00,South,189,7.0,17.0,67,0.00,,,0.02,222.000000,,2013-05-22 16:03:00,
2013-05-22 09:12:00,36.0,26.0,-100.00,South,189,7.0,17.0,67,0.00,,,0.02,222.000000,,2013-05-22 16:12:00,
2013-05-22 09:23:00,36.0,26.0,-100.00,South,189,7.0,17.0,67,0.00,,,0.02,222.000000,,2013-05-22 16:23:00,
2013-05-22 09:31:00,35.0,29.0,-100.00,SSW,192,5.0,13.0,79,0.00,,,0.01,175.000000,,2013-05-22 16:31:00,
2013-05-22 09:52:00,35.0,29.0,-100.00,SSW,192,5.0,13.0,79,0.00,,,0.01,175.000000,,2013-05-22 16:52:00,
2013-05-22 10:02:00,35.0,29.0,-100.00,SSW,192,5.0,13.0,79,0.00,,,0.01,175.000000,,2013-05-22 17:02:00,
2013-05-22 10:11:00,35.0,29.0,-100.00,SSW,192,5.0,13.0,79,0.00,,,0.01,175.000000,,2013-05-22 17:11:00,
2013-05-22 10:22:00,35.0,29.0,-100.00,SSW,192,5.0,13.0,79,0.00,,,0.01,175.000000,,2013-05-22 17:22:00,
2013-05-22 10:31:00,37.0,29.0,-100.00,South,175,9.0,15.0,74,0.00,,,0.01,283.000000,,2013-05-22 17:31:00,
2013-05-22 10:53:00,37.0,29.0,-100.00,South,175,9.0,15.0,74,0.00,,,0.01,283.000000,,2013-05-22 17:53:00,
2013-05-22 11:02:00,37.0,29.0,-100.00,South,175,9.0,15.0,74,0.00,,,0.01,283.000000,,2013-05-22 18:02:00,
2013-05-22 11:14:00,37.0,29.0,-100.00,South,175,9.0,15.0,74,0.00,,,0.01,283.000000,,2013-05-22 18:14:00,
2013-05-22 11:22:00,37.0,29.0,-100.00,South,175,9.0,15.0,74,0.00,,,0.01,283.000000,,2013-05-22 18:22:00,
2013-05-22 11:31:00,37.0,29.0,-100.00,SSW,199,7.0,16.0,72,0.00,,,0.01,281.000000,,2013-05-22 18:31:00,
2013-05-22 11:52:00,37.0,29.0,-100.00,SSW,199,7.0,16.0,72,0.00,,,0.01,281.000000,,2013-05-22 18:52:00,
2013-05-22 12:02:00,37.0,29.0,-100.00,SSW,199,7.0,16.0,72,0.00,,,0.01,281.000000,,2013-05-22 19:02:00,
2013-05-22 12:11:00,37.0,29.0,-100.00,SSW,199,7.0,16.0,72,0.00,,,0.01,281.000000,,2013-05-22 19:11:00,
2013-05-22 12:21:00,37.0,29.0,-100.00,SSW,199,7.0,16.0,72,0.00,,,0.01,281.000000,,2013-05-22 19:21:00,
2013-05-22 12:31:00,38.0,30.0,-100.00,SSW,202,8.0,16.0,72,0.00,,,0.01,318.000000,,2013-05-22 19:31:00,
2013-05-22 12:52:00,38.0,30.0,-100.00,SSW,202,8.0,16.0,72,0.00,,,0.01,318.000000,,2013-05-22 19:52:00,
2013-05-22 13:02:00,38.0,30.0,-100.00,SSW,202,8.0,16.0,72,0.00,,,0.01,318.000000,,2013-05-22 20:02:00,
2013-05-22 13:11:00,38.0,30.0,-100.00,SSW,202,8.0,16.0,72,0.00,,,0.01,318.000000,,2013-05-22 20:11:00,
2013-05-22 13:21:00,38.0,30.0,-100.00,SSW,202,8.0,16.0,72,0.00,,,0.01,318.000000,,2013-05-22 20:21:00,
2013-05-22 13:31:00,39.0,30.0,-100.00,South,189,8.0,14.0,71,0.00,,,0.01,240.000000,,2013-05-22 20:31:00,
2013-05-22 13:52:00,39.0,30.0,-100.00,South,189,8.0,14.0,71,0.00,,,0.01,240.000000,,2013-05-22 20:52:00,
2013-05-22 14:01:00,39.0,30.0,-100.00,South,189,8.0,14.0,71,0.00,,,0.01,240.000000,,2013-05-22 21:01:00,
2013-05-22 14:11:00,39.0,30.0,-100.00,South,189,8.0,14.0,71,0.00,,,0.01,240.000000,,2013-05-22 21:11:00,
2013-05-22 14:21:00,39.0,30.0,-100.00,South,189,8.0,14.0,71,0.00,,,0.01,240.000000,,2013-05-22 21:21:00,
2013-05-22 14:31:00,40.0,31.0,-100.00,SSW,209,6.0,15.0,69,0.00,,,0.01,193.000000,,2013-05-22 21:31:00,
2013-05-22 14:53:00,40.0,31.0,-100.00,SSW,209,6.0,15.0,69,0.00,,,0.01,193.000000,,2013-05-22 21:53:00,
2013-05-22 15:03:00,40.0,31.0,-100.00,SSW,209,6.0,15.0,69,0.00,,,0.01,193.000000,,2013-05-22 22:03:00,
2013-05-22 15:12:00,40.0,31.0,-100.00,SSW,209,6.0,15.0,69,0.00,,,0.01,193.000000,,2013-05-22 22:12:00,
2013-05-22 15:22:00,40.0,31.0,-100.00,SSW,209,6.0,15.0,69,0.00,,,0.01,193.000000,,2013-05-22 22:22:00,
2013-05-22 15:31:00,41.0,30.0,-100.00,SW,218,7.0,14.0,65,0.00,,,0.01,324.000000,,2013-05-22 22:31:00,
2013-05-22 15:52:00,41.0,30.0,-100.00,SW,218,7.0,14.0,65,0.00,,,0.01,324.000000,,2013-05-22 22:52:00,
2013-05-22 16:02:00,41.0,30.0,-100.00,SW,218,7.0,14.0,65,0.00,,,0.01,324.000000,,2013-05-22 23:02:00,
2013-05-22 16:12:00,41.0,30.0,-100.00,SW,218,7.0,14.0,65,0.00,,,0.01,324.000000,,2013-05-22 23:12:00,
2013-05-22 16:21:00,41.0,30.0,-100.00,SW,218,7.0,14.0,65,0.00,,,0.01,324.000000,,2013-05-22 23:21:00,
2013-05-22 16:31:00,42.0,33.0,-100.00,SW,216,7.0,14.0,69,0.00,,,0.01,372.000000,,2013-05-22 23:31:00,
2013-05-22 16:52:00,42.0,33.0,-100.00,SW,216,7.0,14.0,69,0.00,,,0.01,372.000000,,2013-05-22 23:52:00,
2013-05-22 17:01:00,42.0,33.0,-100.00,SW,216,7.0,14.0,69,0.00,,,0.01,372.000000,,2013-05-23 00:01:00,
2013-05-22 17:11:00,42.0,33.0,-100.00,SW,216,7.0,14.0,69,0.00,,,0.01,372.000000,,2013-05-23 00:11:00,
2013-05-22 17:21:00,42.0,33.0,-100.00,SW,216,7.0,14.0,69,0.00,,,0.01,372.000000,,2013-05-23 00:21:00,
2013-05-22 17:31:00,43.0,31.0,-100.00,SSW,211,7.0,14.0,63,0.00,,,0.01,426.000000,,2013-05-23 00:31:00,
2013-05-22 17:52:00,43.0,31.0,-100.00,SSW,211,7.0,14.0,63,0.00,,,0.01,426.000000,,2013-05-23 00:52:00,
2013-05-22 18:01:00,43.0,31.0,-100.00,SSW,211,7.0,14.0,63,0.00,,,0.01,426.000000,,2013-05-23 01:01:00,
2013-05-22 18:11:00,43.0,31.0,-100.00,SSW,211,7.0,14.0,63,0.00,,,0.01,426.000000,,2013-05-23 01:11:00,
2013-05-22 18:21:00,43.0,31.0,-100.00,SSW,211,7.0,14.0,63,0.00,,,0.01,426.000000,,2013-05-23 01:21:00,
2013-05-22 18:31:00,42.0,32.0,-100.00,SW,218,5.0,13.0,68,0.00,,,0.01,275.000000,,2013-05-23 01:31:00,
2013-05-22 18:52:00,42.0,32.0,-100.00,SW,218,5.0,13.0,68,0.00,,,0.01,275.000000,,2013-05-23 01:52:00,
2013-05-22 19:01:00,42.0,32.0,-100.00,SW,218,5.0,13.0,68,0.00,,,0.01,275.000000,,2013-05-23 02:01:00,
2013-05-22 19:11:00,42.0,32.0,-100.00,SW,218,5.0,13.0,68,0.00,,,0.01,275.000000,,2013-05-23 02:11:00,
2013-05-22 19:21:00,42.0,32.0,-100.00,SW,218,5.0,13.0,68,0.00,,,0.01,275.000000,,2013-05-23 02:21:00,
2013-05-22 19:31:00,41.0,29.0,-100.00,SW,214,7.0,16.0,63,0.00,,,0.01,156.000000,,2013-05-23 02:31:00,
2013-05-22 20:01:00,41.0,29.0,-100.00,SW,214,7.0,16.0,63,0.00,,,0.01,156.000000,,2013-05-23 03:01:00,
2013-05-22 20:11:00,41.0,29.0,-100.00,SW,214,7.0,16.0,63,0.00,,,0.01,156.000000,,2013-05-23 03:11:00,
2013-05-22 20:21:00,41.0,29.0,-100.00,SW,214,7.0,16.0,63,0.00,,,0.01,156.000000,,2013-05-23 03:21:00,
2013-05-22 20:31:00,39.0,30.0,-100.00,SSW,192,7.0,15.0,69,0.00,,,0.00,53.000000,,2013-05-23 03:31:00,
2013-05-22 20:53:00,39.0,30.0,-100.00,SSW,192,7.0,15.0,69,0.00,,,0.00,53.000000,,2013-05-23 03:53:00,
2013-05-22 21:02:00,39.0,30.0,-100.00,SSW,192,7.0,15.0,69,0.00,,,0.00,53.000000,,2013-05-23 04:02:00,
2013-05-22 21:12:00,39.0,30.0,-100.00,SSW,192,7.0,15.0,69,0.00,,,0.00,53.000000,,2013-05-23 04:12:00,
2013-05-22 21:22:00,39.0,30.0,-100.00,SSW,192,7.0,15.0,69,0.00,,,0.00,53.000000,,2013-05-23 04:22:00,
2013-05-22 21:31:00,37.0,30.0,-100.00,South,183,6.0,13.0,76,0.00,,,0.00,0.000000,,2013-05-23 04:31:00,
2013-05-22 21:52:00,37.0,30.0,-100.00,South,183,6.0,13.0,76,0.00,,,0.00,0.000000,,2013-05-23 04:52:00,
2013-05-22 22:02:00,37.0,30.0,-100.00,South,183,6.0,13.0,76,0.00,,,0.00,0.000000,,2013-05-23 05:02:00,
2013-05-22 22:11:00,37.0,30.0,-100.00,South,183,6.0,13.0,76,0.00,,,0.00,0.000000,,2013-05-23 05:11:00,
2013-05-22 22:21:00,37.0,30.0,-100.00,South,183,6.0,13.0,76,0.00,,,0.00,0.000000,,2013-05-23 05:21:00,
2013-05-22 22:31:00,38.0,30.0,-100.00,SSW,194,9.0,16.0,73,0.00,,,0.00,0.000000,,2013-05-23 05:31:00,
2013-05-22 22:52:00,38.0,30.0,-100.00,SSW,194,9.0,16.0,73,0.00,,,0.00,0.000000,,2013-05-23 05:52:00,
2013-05-22 23:02:00,38.0,30.0,-100.00,SSW,194,9.0,16.0,73,0.00,,,0.00,0.000000,,2013-05-23 06:02:00,
2013-05-22 23:12:00,38.0,30.0,-100.00,SSW,194,9.0,16.0,73,0.00,,,0.00,0.000000,,2013-05-23 06:12:00,
2013-05-22 23:21:00,38.0,30.0,-100.00,SSW,194,9.0,16.0,73,0.00,,,0.00,0.000000,,2013-05-23 06:21:00,
2013-05-22 23:31:00,37.0,28.0,-100.00,SSW,206,7.0,17.0,70,0.00,,,0.00,0.000000,,2013-05-23 06:31:00,
2013-05-22 23:52:00,37.0,28.0,-100.00,SSW,206,7.0,17.0,70,0.00,,,0.00,0.000000,,2013-05-23 06:52:00,